Date,TemperatureHighF,TemperatureAvgF,TemperatureLowF,DewpointHighF,DewpointAvgF,DewpointLowF,HumidityHigh,HumidityAvg,HumidityLow,PressureMaxIn,PressureMinIn,WindSpeedMaxMPH,WindSpeedAvgMPH,GustSpeedMaxMPH,PrecipitationSumIn
2013-1-1,40,37,33,29,27,22,75,66,52,30.02,29.90,7,3,0,0.00
2013-1-2,33,29,25,26,17,12,74,61,48,30.23,29.98,5,2,0,0.00
2013-1-3,35,27,21,19,15,12,70,61,48,30.25,30.14,6,2,0,0.00
2013-1-4,38,32,28,22,20,18,69,62,51,30.19,30.09,10,5,0,0.00
2013-1-5,39,34,30,25,22,19,71,62,53,30.37,30.12,8,3,0,0.00
2013-1-6,46,39,31,32,28,25,91,67,46,30.19,30.02,8,2,0,0.00
2013-1-7,40,37,31,29,26,23,74,64,54,30.42,30.12,6,2,0,0.00
2013-1-8,52,38,28,33,28,23,86,68,43,30.41,30.35,5,1,0,0.00
2013-1-9,48,40,30,41,34,28,93,81,61,30.37,30.22,6,2,0,0.00
2013-1-10,49,43,39,32,28,26,62,54,44,30.58,30.35,7,2,0,0.00
2013-1-11,42,38,35,38,33,27,97,80,63,30.49,30.09,4,1,0,0.00
2013-1-12,56,45,39,48,42,38,97,91,75,30.16,30.09,2,1,0,0.00
2013-1-13,50,44,40,47,43,39,98,97,95,30.12,29.96,4,1,0,0.00
2013-1-14,57,50,37,56,45,33,98,85,60,30.29,29.93,5,2,0,0.00
2013-1-15,37,36,31,35,34,30,96,93,85,30.33,30.15,4,1,0,0.00
2013-1-16,40,34,31,38,33,30,97,96,90,30.16,29.84,4,1,0,0.00
2013-1-17,42,38,34,37,29,25,91,70,54,30.12,29.96,5,2,0,0.00
2013-1-18,35,30,27,28,16,8,78,56,38,30.48,30.03,7,3,0,0.00
2013-1-19,51,38,26,29,24,14,76,58,40,30.41,29.94,8,5,0,0.00
2013-1-20,53,42,31,31,22,11,64,47,22,30.07,29.80,14,6,0,0.00
2013-1-21,36,29,24,25,17,9,74,60,47,30.08,29.81,10,2,0,0.00
2013-1-22,25,16,12,10,-2,-6,55,44,34,30.29,29.93,12,6,0,0.00
2013-1-23,20,16,9,6,-1,-4,60,47,36,30.35,30.16,9,4,0,0.00
2013-1-24,23,18,12,11,5,-1,89,60,36,30.50,30.11,7,4,0,0.00
2013-1-25,19,16,11,14,5,-100,92,67,48,30.50,30.08,4,2,0,0.00
2013-1-26,29,23,16,18,17,14,92,77,61,30.42,30.09,6,2,0,0.00
2013-1-27,33,26,19,19,17,15,90,69,52,30.60,30.42,4,1,0,0.00
2013-1-28,42,32,26,39,30,19,96,90,73,30.50,30.04,4,2,0,0.00
2013-1-29,65,50,40,53,45,38,94,83,65,30.13,29.97,4,2,0,0.00
2013-1-30,67,56,49,61,54,46,97,91,79,29.97,29.21,10,4,0,0.00
2013-1-31,55,35,27,54,19,10,97,53,44,29.88,29.21,16,10,0,0.00
2013-2-1,27,22,16,19,7,2,84,53,42,30.36,29.81,13,6,0,0.00
2013-2-2,25,20,12,23,12,2,94,72,47,30.37,30.02,6,3,0,0.00
2013-2-3,29,26,20,26,23,16,95,88,63,30.03,29.83,8,2,0,0.00
2013-2-4,32,27,19,18,14,-100,71,60,50,30.09,29.90,8,4,0,0.00
2013-2-5,35,31,27,29,25,18,85,77,67,29.94,29.85,3,1,0,0.00
2013-2-6,38,33,28,29,25,18,90,71,56,30.35,29.93,8,3,0,0.00
2013-2-7,34,30,25,27,21,17,80,69,55,30.44,30.22,6,3,0,0.00
2013-2-8,37,33,31,36,30,21,96,88,68,30.22,29.74,11,3,0,0.00
2013-2-9,36,29,24,21,16,14,70,58,44,30.39,29.89,12,6,0,0.00
2013-2-10,42,31,21,25,15,12,73,54,32,30.48,30.25,5,2,0,0.00
2013-2-11,51,41,32,48,39,25,97,91,52,30.25,29.68,8,4,0,0.00
2013-2-12,50,44,35,33,28,25,70,55,44,29.97,29.78,12,4,0,0.00
2013-2-13,40,33,29,31,27,23,96,78,63,29.95,29.66,5,2,0,0.00
2013-2-14,45,36,30,30,29,27,96,77,54,30.01,29.75,4,2,0,0.00
2013-2-15,55,40,30,36,31,27,95,73,41,30.03,29.89,8,2,0,0.00
2013-2-16,33,31,29,30,27,16,97,85,58,30.00,29.82,4,2,0,0.00
2013-2-17,28,24,20,17,12,5,72,60,45,30.17,29.81,11,6,0,0.00
2013-2-18,38,26,16,13,8,4,63,47,29,30.37,30.16,9,4,0,0.00
2013-2-19,41,36,29,39,27,13,93,72,50,30.16,29.70,9,4,0,0.00
2013-2-20,35,28,22,21,14,8,63,56,49,30.13,29.83,11,7,0,0.00
2013-2-21,33,26,20,16,13,10,67,58,48,30.32,30.10,8,4,0,0.00
2013-2-22,30,27,25,27,21,15,94,76,63,30.39,30.22,7,2,0,0.00
2013-2-23,43,35,28,42,34,27,97,96,94,30.22,29.81,2,1,0,0.00
2013-2-24,44,37,29,38,29,19,97,75,46,30.09,29.78,10,4,0,0.00
2013-2-25,44,34,26,25,22,18,74,60,44,30.21,30.09,4,2,0,0.00
2013-2-26,39,34,29,38,30,22,97,85,71,30.22,29.64,14,6,0,0.00
2013-2-27,52,44,37,42,36,32,97,78,49,29.68,29.51,9,4,0,0.00
2013-2-28,43,40,37,34,29,24,76,66,48,29.70,29.62,10,4,0,0.00
2013-3-1,40,37,31,30,27,23,79,68,55,29.85,29.69,6,4,0,0.00
2013-3-2,33,30,28,23,21,19,76,69,59,29.87,29.79,7,4,0,0.00
2013-3-3,34,30,27,21,19,18,74,65,55,29.88,29.79,9,5,0,0.00
2013-3-4,38,30,24,20,17,14,68,57,44,30.01,29.88,10,6,0,0.00
2013-3-5,46,35,26,29,19,13,74,54,28,30.07,29.83,6,3,0,0.00
2013-3-6,36,33,31,34,31,26,97,93,68,29.98,29.64,10,6,0,0.00
2013-3-7,45,38,33,31,27,24,84,67,46,30.13,29.98,8,4,0,0.00
2013-3-8,45,38,32,28,26,21,80,61,49,30.26,30.11,10,5,0,0.00
2013-3-9,59,45,33,25,23,19,62,44,22,30.34,30.24,5,2,0,0.00
2013-3-10,59,47,35,31,23,9,65,41,18,30.32,30.21,8,3,0,0.00
2013-3-11,55,47,40,48,42,33,93,82,67,30.24,29.94,8,4,0,0.00
2013-3-12,55,49,39,52,44,30,97,83,60,29.96,29.71,8,4,0,0.00
2013-3-13,45,38,32,31,25,18,75,60,34,30.03,29.87,10,4,0,0.00
2013-3-14,40,33,28,19,16,12,63,49,32,30.09,30.01,12,7,0,0.00
2013-3-15,52,40,29,33,22,15,65,48,35,30.06,29.77,11,5,0,0.00
2013-3-16,49,42,34,36,33,31,88,71,52,29.91,29.65,7,3,0,0.00
2013-3-17,38,34,30,31,26,21,93,74,53,30.26,29.91,5,2,0,0.00
2013-3-18,34,33,32,32,25,18,96,75,56,30.31,29.88,8,4,0,0.00
2013-3-19,55,41,33,38,26,-100,97,67,20,29.89,29.70,12,4,0,0.00
2013-3-20,47,39,30,22,16,13,60,40,26,29.96,29.76,11,5,0,0.00
2013-3-21,37,30,25,26,15,7,88,54,37,29.87,29.73,8,4,0,0.00
2013-3-22,40,31,24,19,16,9,64,53,41,29.99,29.85,11,5,0,0.00
2013-3-23,47,36,26,23,21,18,73,55,36,30.01,29.91,8,4,0,0.00
2013-3-24,40,35,29,29,22,19,86,60,47,29.98,29.66,6,2,0,0.00
2013-3-25,34,32,30,32,30,28,96,93,86,29.68,29.51,3,1,0,0.00
2013-3-26,47,37,30,32,29,25,96,74,42,29.96,29.68,6,3,0,0.00
2013-3-27,45,40,35,31,28,24,74,61,46,30.09,29.96,11,5,0,0.00
2013-3-28,45,40,34,31,28,24,79,64,45,30.20,30.06,7,4,0,0.00
2013-3-29,52,44,38,31,28,25,65,52,39,30.23,30.12,7,3,0,0.00
2013-3-30,55,46,36,32,26,20,72,47,25,30.21,30.10,7,2,0,0.00
2013-3-31,50,45,39,47,37,-100,96,77,46,30.11,29.73,5,2,0,0.00
2013-4-1,58,47,37,44,36,17,96,66,42,29.97,29.72,11,6,0,0.00
2013-4-2,43,36,30,17,15,12,52,41,30,30.16,29.96,11,4,0,0.00
2013-4-3,44,36,29,18,14,10,55,42,25,30.37,30.16,10,5,0,0.00
2013-4-4,47,36,25,26,16,11,69,45,25,30.40,30.09,5,2,0,0.00
2013-4-5,61,47,34,35,28,18,95,57,24,30.09,29.80,8,3,0,0.00
2013-4-6,53,43,33,23,19,15,57,38,22,30.31,30.01,6,3,0,0.00
2013-4-7,67,52,36,41,34,25,82,53,34,30.26,29.96,8,4,0,0.00
2013-4-8,78,66,54,51,45,40,63,49,31,30.05,29.92,7,3,0,0.00
2013-4-9,82,72,62,55,52,49,66,51,36,30.05,29.89,8,4,0,0.00
2013-4-10,87,77,65,59,54,51,62,45,33,29.93,29.73,11,5,0,0.00
2013-4-11,82,68,52,61,56,50,92,69,44,29.87,29.73,12,4,0,0.00
2013-4-12,64,52,48,59,51,47,98,95,84,29.80,29.58,9,4,0,0.00
2013-4-13,66,53,43,47,40,34,96,64,37,29.93,29.75,7,3,0,0.00
2013-4-14,63,53,43,41,36,32,78,54,34,30.12,29.93,8,2,0,0.00
2013-4-15,58,54,50,48,45,39,90,74,58,30.28,30.11,7,3,0,0.00
2013-4-16,72,60,51,58,52,46,89,77,58,30.29,30.09,6,3,0,0.00
2013-4-17,70,64,59,60,57,53,94,79,64,30.22,30.09,6,2,0,0.00
2013-4-18,72,60,55,63,56,51,97,85,67,30.22,29.99,7,4,0,0.00
2013-4-19,74,64,50,65,59,47,95,86,69,29.99,29.57,10,4,0,0.00
2013-4-20,55,49,43,47,32,25,94,54,33,30.32,29.73,9,4,0,0.00
2013-4-21,52,43,35,30,24,20,67,47,29,30.58,30.33,5,2,0,0.00
2013-4-22,53,44,35,35,33,30,88,67,46,30.57,30.40,7,4,0,0.00
2013-4-23,59,48,42,43,39,34,86,71,49,30.41,30.11,4,2,0,0.00
2013-4-24,75,59,43,58,49,41,97,74,44,30.12,29.77,7,3,0,0.00
2013-4-25,61,51,41,52,33,28,82,52,30,30.29,29.93,7,3,0,0.00
2013-4-26,62,52,43,37,33,28,69,49,32,30.44,30.28,4,1,0,0.00
2013-4-27,69,55,41,39,34,31,81,48,29,30.41,30.27,3,1,0,0.00
2013-4-28,65,55,43,43,37,-100,86,56,33,30.27,30.12,6,2,0,0.00
2013-4-29,56,53,49,55,50,39,97,91,57,30.15,30.05,5,2,0,0.00
2013-4-30,58,54,52,55,52,43,98,93,77,30.28,30.08,4,2,0,0.00
2013-5-1,67,56,44,46,38,32,79,54,31,30.41,30.28,6,2,0,0.00
2013-5-2,67,54,41,48,44,40,96,70,41,30.43,30.30,4,2,0,0.00
2013-5-3,64,54,44,46,42,39,92,68,45,30.37,30.29,5,2,0,0.00
2013-5-4,65,53,41,45,42,38,93,67,42,30.33,30.16,5,2,0,0.00
2013-5-5,59,50,42,45,41,38,89,72,52,30.23,30.14,6,2,0,0.00
2013-5-6,59,52,43,56,48,41,94,89,80,30.18,30.06,5,3,0,0.00
2013-5-7,60,57,55,59,56,54,98,97,93,30.08,29.93,6,4,0,0.00
2013-5-8,69,59,55,62,55,50,98,87,57,29.98,29.91,5,1,0,0.00
2013-5-9,71,60,51,61,54,50,97,83,63,29.98,29.90,4,1,0,0.00
2013-5-10,82,66,55,61,54,-100,96,71,42,29.99,29.85,5,1,0,0.00
2013-5-11,74,64,60,65,61,57,97,92,64,29.90,29.69,4,1,0,0.00
2013-5-12,60,55,47,58,38,-100,93,58,32,30.01,29.72,7,4,0,0.00
2013-5-13,56,48,40,32,28,23,69,48,29,30.15,30.00,6,2,0,0.00
2013-5-14,59,48,36,44,32,27,76,54,36,30.20,30.04,5,1,0,0.00
2013-5-15,82,63,51,65,53,41,92,71,52,30.06,29.67,5,2,0,0.00
2013-5-16,77,67,68,65,38,-100,80,64,51,29.88,29.72,6,3,0,0.00
2013-5-17,81,69,57,57,46,-100,88,54,29,30.13,29.88,3,1,0,0.00
2013-5-18,66,60,56,57,53,48,96,78,59,30.22,30.13,4,2,0,0.00
2013-5-19,66,61,56,64,60,55,98,96,92,30.20,30.09,3,1,0,0.00
2013-5-20,81,69,63,69,65,62,98,87,67,30.12,29.96,2,1,0,0.00
2013-5-21,83,73,65,72,67,64,97,84,66,29.97,29.85,3,1,0,0.00
2013-5-22,87,75,65,72,68,63,97,81,51,29.90,29.80,5,1,0,0.00
2013-5-23,78,68,61,68,64,59,97,88,68,29.87,29.72,6,1,0,0.00
2013-5-24,62,54,46,61,48,34,97,82,61,30.12,29.71,6,3,0,0.00
2013-5-25,63,52,41,40,35,32,77,56,35,30.14,30.05,6,4,0,0.00
2013-5-26,69,57,46,40,37,33,67,48,31,30.20,30.10,6,2,0,0.00
2013-5-27,70,59,47,48,42,36,70,53,35,30.27,30.16,3,1,0,0.00
2013-5-28,77,64,54,65,58,47,96,81,63,30.19,30.05,2,1,0,0.00
2013-5-29,86,75,65,68,65,63,96,73,49,30.10,30.04,4,2,0,0.00
2013-5-30,90,79,68,70,66,63,85,66,45,30.15,30.07,2,1,0,0.00
2013-5-31,89,79,67,67,65,61,89,64,39,30.12,29.99,3,1,0,0.00
2013-6-1,89,79,68,70,66,63,84,66,50,30.01,29.89,2,1,0,0.00
2013-6-2,80,74,66,71,65,-100,96,78,67,29.89,29.80,4,2,0,0.00
2013-6-3,79,70,65,70,65,56,98,84,59,29.91,29.80,2,0,0,0.00
2013-6-4,75,64,54,56,48,44,78,59,39,30.11,29.91,3,1,0,0.00
2013-6-5,77,65,51,56,52,47,93,64,43,30.17,30.04,3,1,0,0.00
2013-6-6,70,64,59,62,58,52,97,82,69,30.07,29.86,4,2,0,0.00
2013-6-7,68,65,61,67,64,60,98,98,97,29.86,29.58,3,1,0,0.00
2013-6-8,78,69,63,65,62,59,97,80,57,30.07,29.66,3,1,0,0.00
2013-6-9,79,69,60,68,62,57,93,79,57,30.18,30.07,3,1,0,0.00
2013-6-10,77,70,66,74,68,64,97,94,82,30.10,29.77,5,1,0,0.00
2013-6-11,79,71,64,66,65,63,97,82,63,29.82,29.75,5,3,0,0.00
2013-6-12,86,75,67,72,67,62,87,76,56,29.84,29.76,3,1,0,0.00
2013-6-13,83,72,67,70,66,57,96,82,60,29.82,29.43,7,3,0,0.00
2013-6-14,77,66,56,58,55,50,94,70,44,29.95,29.55,5,2,0,0.00
2013-6-15,79,69,60,61,56,52,86,64,40,30.05,29.95,3,1,0,0.00
2013-6-16,80,71,62,67,60,51,83,69,59,30.01,29.86,4,2,0,0.00
2013-6-17,85,76,69,70,65,61,80,70,56,29.93,29.85,3,1,0,0.00
2013-6-18,74,69,62,70,66,61,97,92,78,29.89,29.78,3,0,0,0.00
2013-6-19,77,66,60,63,60,56,97,82,55,30.13,29.86,2,0,0,0.00
2013-6-20,78,67,57,64,59,55,96,79,53,30.25,30.13,3,1,0,0.00
2013-6-22,87,81,74,69,66,64,72,62,51,30.24,30.11,3,2,0,0.00
2013-6-23,84,72,63,74,68,61,96,86,67,30.17,30.05,2,0,0,0.00
2013-6-24,89,76,70,73,69,62,95,80,51,30.10,30.00,4,1,0,0.00
2013-6-25,88,78,67,73,69,63,95,76,56,30.02,29.86,4,1,0,0.00
2013-6-26,86,73,65,73,68,63,96,85,61,29.91,29.80,4,1,0,0.00
2013-6-27,82,73,67,75,70,66,97,90,73,29.81,29.58,3,1,0,0.00
2013-6-28,83,75,69,74,69,66,96,83,66,29.60,29.46,3,1,0,0.00
2013-6-29,87,75,64,71,65,61,96,72,43,29.67,29.50,2,1,0,0.00
2013-6-30,84,76,69,74,71,68,96,87,70,29.83,29.67,5,1,0,0.00
2013-7-1,80,74,70,73,71,68,96,90,77,29.96,29.82,3,1,0,0.00
2013-7-2,81,74,71,73,71,69,96,91,77,30.15,29.96,4,2,0,0.00
2013-7-3,85,75,69,76,72,68,97,91,71,30.21,30.14,2,1,0,0.00
2013-7-4,87,78,71,74,72,70,97,82,62,30.23,30.14,4,1,0,0.00
2013-7-5,87,79,71,74,72,69,96,80,60,30.20,30.10,3,1,0,0.00
2013-7-6,90,81,72,76,72,70,95,77,55,30.16,30.03,2,1,0,0.00
2013-7-7,89,77,68,76,71,67,96,81,60,30.07,29.96,4,1,0,0.00
2013-7-8,84,74,67,71,68,66,97,83,58,30.08,30.01,3,1,0,0.00
2013-7-9,81,75,71,73,70,67,91,84,75,30.08,29.98,2,1,0,0.00
2013-7-10,86,76,73,76,70,-100,95,83,67,30.00,29.84,3,1,0,0.00
2013-7-11,84,75,70,72,69,66,96,84,64,29.90,29.81,3,1,0,0.00
2013-7-12,71,67,64,68,65,63,97,93,82,30.01,29.88,3,1,0,0.00
2013-7-13,84,74,67,74,70,66,98,88,69,30.26,30.00,3,1,0,0.00
2013-7-14,90,79,70,75,72,69,97,82,56,30.32,30.25,3,0,0,0.00
2013-7-15,93,80,70,76,73,69,97,79,55,30.28,30.16,2,0,0,0.00
2013-7-16,91,83,76,74,71,69,85,70,51,30.22,30.14,2,1,0,0.00
2013-7-17,93,83,74,75,71,68,86,69,48,30.19,30.07,1,0,0,0.00
2013-7-18,94,84,75,79,75,70,87,75,58,30.09,29.97,3,0,0,0.00
2013-7-19,94,83,75,79,75,67,92,77,57,29.98,29.83,3,1,0,0.00
2013-7-20,89,79,71,75,70,-100,92,76,61,29.86,29.77,4,2,0,0.00
2013-7-21,88,76,69,75,70,66,95,83,56,29.92,29.85,2,0,0,0.00
2013-7-22,87,77,69,75,72,68,97,87,61,29.91,29.73,2,0,0,0.00
2013-7-23,82,74,69,73,69,67,98,85,63,29.75,29.62,5,1,0,0.00
2013-7-24,81,74,67,70,66,58,90,77,64,29.90,29.66,2,1,0,0.00
2013-7-25,77,66,56,62,58,51,92,75,57,30.02,29.90,2,1,0,0.00
2013-7-26,81,69,61,64,61,57,95,77,46,30.08,30.01,2,0,0,0.00
2013-7-27,82,71,63,70,66,61,96,85,65,30.03,29.90,5,1,0,0.00
2013-7-28,81,72,66,71,68,62,96,87,64,29.98,29.88,4,1,0,0.00
2013-7-29,78,68,59,63,58,55,95,75,48,30.14,29.96,3,1,0,0.00
2013-7-30,79,69,59,64,58,54,86,70,50,30.21,30.12,3,0,0,0.00
2013-7-31,79,70,62,67,64,60,94,80,63,30.14,30.00,3,1,0,0.00
2013-8-1,81,71,65,71,68,64,97,90,68,30.00,29.79,2,1,0,0.00
2013-8-2,82,73,65,68,65,62,96,77,55,29.94,29.83,3,1,0,0.00
2013-8-3,72,68,65,65,63,61,94,86,74,29.95,29.89,3,1,0,0.00
2013-8-4,77,68,60,63,58,52,95,72,47,30.01,29.89,3,1,0,0.00
2013-8-5,78,67,58,60,56,52,83,68,44,30.09,30.00,2,0,0,0.00
2013-8-6,70,65,62,67,62,58,97,92,82,30.06,30.00,2,0,0,0.00
2013-8-7,80,71,64,72,68,63,98,91,75,30.06,29.98,3,1,0,0.00
2013-8-8,82,73,67,76,71,66,98,93,74,30.04,29.96,5,1,0,0.00
2013-8-9,83,77,73,76,73,70,97,87,73,29.96,29.83,4,2,0,0.00
2013-8-10,82,74,69,70,67,63,94,79,56,30.06,29.91,2,0,0,0.00
2013-8-11,82,74,65,71,66,63,94,80,58,30.10,29.98,2,1,0,0.00
2013-8-12,85,74,66,72,68,65,97,83,60,30.01,29.91,2,0,0,0.00
2013-8-13,82,73,69,71,67,-100,97,85,66,29.90,29.71,3,1,0,0.00
2013-8-14,71,63,55,62,50,-100,79,67,51,30.07,29.78,5,2,0,0.00
2013-8-15,76,57,53,57,37,-100,86,66,42,30.17,30.07,2,0,0,0.00
2013-8-16,77,64,54,60,52,-100,95,71,45,30.19,30.12,1,0,0,0.00
2013-8-17,77,66,55,62,57,54,96,77,51,30.25,30.19,2,0,0,0.00
2013-8-18,71,65,62,63,59,-100,95,86,72,30.23,30.15,2,0,0,0.00
2013-8-19,74,62,59,67,50,-100,96,87,75,30.17,30.05,1,0,0,0.00
2013-8-20,84,72,63,71,63,-100,98,79,53,30.15,30.07,2,0,0,0.00
2013-8-21,86,74,65,74,69,64,97,84,61,30.17,30.05,2,0,0,0.00
2013-8-22,84,76,67,71,69,65,96,80,63,30.06,29.90,3,1,0,0.00
2013-8-23,72,68,62,68,64,59,92,87,76,30.10,29.91,2,0,0,0.00
2013-8-24,79,67,58,64,58,55,94,76,48,30.32,30.10,2,0,0,0.00
2013-8-25,80,67,57,63,56,-100,97,72,44,30.39,30.25,3,1,0,0.00
2013-8-26,83,72,60,66,61,54,87,70,54,30.27,29.97,3,1,0,0.00
2013-8-27,86,76,71,73,67,63,83,75,60,29.97,29.87,3,2,0,0.00
2013-8-28,75,72,68,71,70,67,96,91,83,29.85,29.80,3,1,0,0.00
2013-8-29,82,73,68,72,69,67,97,88,70,30.00,29.81,2,1,0,0.00
2013-8-30,83,74,67,71,68,65,95,84,62,30.01,29.86,2,1,0,0.00
2013-8-31,87,76,68,74,70,66,95,81,61,29.88,29.77,2,0,0,0.00
2013-9-1,89,77,67,75,69,-100,96,80,56,29.82,29.73,1,0,0,0.00
2013-9-2,87,77,69,73,70,67,96,80,59,29.78,29.69,2,1,0,0.00
2013-9-3,80,73,64,72,63,54,93,72,50,29.93,29.70,3,1,0,0.00
2013-9-4,79,68,57,57,54,50,87,63,37,30.06,29.93,2,1,0,0.00
2013-9-5,78,69,61,63,57,49,83,67,53,30.11,30.00,4,2,0,0.00
2013-9-6,72,61,51,53,49,45,84,66,45,30.24,30.11,2,1,0,0.00
2013-9-7,78,64,50,62,54,44,95,74,50,30.15,29.92,2,0,0,0.00
2013-9-8,83,70,63,68,62,-100,92,77,58,30.04,29.87,3,1,0,0.00
2013-9-9,76,66,55,66,57,48,89,73,60,30.19,30.03,3,1,0,0.00
2013-9-10,89,80,69,74,72,66,93,75,59,30.16,30.06,2,1,0,0.00
2013-9-11,92,80,71,77,72,69,96,78,55,30.12,29.98,3,1,0,0.00
2013-9-12,88,75,67,74,70,66,96,85,62,29.99,29.71,3,1,0,0.00
2013-9-13,74,66,59,67,57,50,95,75,45,29.91,29.67,4,2,0,0.00
2013-9-14,66,56,48,51,47,45,91,73,51,30.15,29.91,2,1,0,0.00
2013-9-15,74,57,46,56,48,-100,97,78,47,30.22,30.08,2,0,0,0.00
2013-9-16,70,62,57,59,55,52,95,81,61,30.23,30.02,3,1,0,0.00
2013-9-17,64,54,44,53,44,40,88,71,42,30.41,30.23,3,1,0,0.00
2013-9-18,53,45,42,45,43,41,97,93,84,30.34,30.19,1,0,0,0.00
2013-9-19,76,60,47,60,53,46,97,79,55,30.19,30.07,3,0,0,0.00
2013-9-20,77,64,53,62,57,52,97,81,56,30.08,29.95,3,1,0,0.00
2013-9-21,74,63,58,64,60,56,97,88,64,29.96,29.67,4,2,0,0.00
2013-9-22,68,59,53,59,51,-100,97,80,54,29.93,29.70,2,1,0,0.00
2013-9-23,63,55,49,47,45,41,88,71,53,30.08,29.93,3,1,0,0.00
2013-9-24,69,55,44,51,45,41,91,73,45,30.10,29.94,3,1,0,0.00
2013-9-25,71,59,48,54,48,44,88,68,40,29.98,29.87,1,0,0,0.00
2013-9-26,72,60,51,56,51,47,92,75,52,30.06,29.91,2,0,0,0.00
2013-9-27,69,60,54,59,55,51,95,86,66,30.24,30.06,3,0,0,0.00
2013-9-28,67,59,52,56,54,51,96,84,64,30.30,30.21,1,0,0,0.00
2013-9-29,70,58,49,58,51,-100,97,81,58,30.21,30.06,2,0,0,0.00
2013-9-30,72,60,50,57,53,49,97,79,52,30.08,29.97,2,0,0,0.00
2013-10-1,69,66,57,58,57,53,85,73,68,30.02,29.97,2,1,0,0.00
2013-10-2,81,71,62,64,60,57,83,68,49,30.06,29.98,4,2,0,0.00
2013-10-3,80,71,61,66,62,58,91,74,57,30.11,30.02,1,0,0,0.00
2013-10-4,84,72,60,68,64,59,97,78,54,30.07,29.99,2,0,0,0.00
2013-10-5,85,75,66,69,65,62,88,73,52,30.07,29.98,2,1,0,0.00
2013-10-6,84,73,64,70,66,63,97,79,53,30.01,29.90,5,2,0,0.00
2013-10-7,71,63,54,69,60,45,96,90,73,30.02,29.76,5,2,0,0.00
2013-10-8,64,54,46,50,46,43,91,74,54,30.28,30.02,3,1,0,0.00
2013-10-9,57,53,49,50,48,44,94,82,74,30.32,30.22,4,1,0,0.00
2013-10-10,56,53,50,55,52,48,97,96,90,30.22,29.99,2,1,0,0.00
2013-10-11,60,57,55,59,56,54,98,98,97,29.99,29.93,4,2,0,0.00
2013-10-12,63,60,57,59,57,55,98,91,79,30.16,29.98,4,2,0,0.00
2013-10-13,60,56,54,58,53,-100,97,93,84,30.32,30.16,4,2,0,0.00
2013-10-14,67,57,52,55,52,50,94,84,60,30.34,30.22,2,0,0,0.00
2013-10-15,69,57,48,55,48,42,97,76,42,30.23,30.08,2,0,0,0.00
2013-10-16,67,60,54,61,56,48,96,88,78,30.09,29.90,2,0,0,0.00
2013-10-17,73,63,58,64,60,56,98,91,69,29.91,29.70,7,1,0,0.00
2013-10-18,62,56,51,56,44,41,89,64,50,30.00,29.79,8,2,0,0.00
2013-10-19,63,52,43,55,47,41,96,83,58,30.00,29.77,4,1,0,0.00
2013-10-20,59,50,43,47,36,-100,82,62,44,30.09,29.83,6,3,0,0.00
2013-10-21,64,52,38,45,40,36,91,66,36,30.14,29.99,4,1,0,0.00
2013-10-24,46,43,37,30,28,27,73,57,48,30.12,29.98,8,4,0,0.00
2013-10-25,52,44,36,34,31,28,78,60,44,30.31,30.11,6,4,0,0.00
2013-10-26,52,44,33,31,29,26,76,57,40,30.29,29.93,6,2,0,0.00
2013-10-27,56,47,40,36,31,-100,73,56,43,30.14,29.94,5,2,0,0.00
2013-10-28,60,46,34,42,34,-100,92,68,42,30.28,30.14,2,0,0,0.00
2013-10-29,60,49,38,44,39,35,91,70,48,30.38,30.28,2,0,0,0.00
2013-10-30,65,53,45,56,50,40,97,89,69,30.32,30.13,2,1,0,0.00
2013-10-31,65,57,52,59,54,51,98,92,79,30.19,29.76,4,1,0,0.00
2013-11-1,71,66,59,58,56,53,91,72,53,29.76,29.59,5,3,0,0.00
2013-11-2,63,55,47,44,41,38,74,59,48,29.84,29.66,7,3,0,0.00
2013-11-3,52,45,36,41,30,-100,84,60,31,30.44,29.85,6,2,0,0.00
2013-11-4,43,36,28,25,21,19,76,56,39,30.63,30.45,3,1,0,0.00
2013-11-5,55,44,33,46,36,23,85,74,60,30.61,30.46,3,1,0,0.00
2013-11-6,65,55,46,52,49,44,93,80,60,30.46,30.06,4,2,0,0.00
2013-11-7,57,52,41,54,45,23,93,79,49,30.05,29.85,8,3,0,0.00
2013-11-8,46,41,35,30,25,23,67,54,41,30.30,30.05,9,4,0,0.00
2013-11-9,51,41,31,29,25,-100,73,54,41,30.34,30.02,4,2,0,0.00
2013-11-10,58,48,41,34,29,27,59,49,36,30.19,29.94,10,5,0,0.00
2013-11-11,54,45,36,31,29,27,71,55,39,30.28,30.00,5,3,0,0.00
2013-11-12,48,37,28,37,22,12,84,53,39,30.37,29.96,6,3,0,0.00
2013-11-13,39,32,27,21,18,14,69,57,45,30.46,30.36,6,3,0,0.00
2013-11-14,54,38,28,21,17,12,63,44,20,30.37,30.22,3,2,0,0.00
2013-11-15,58,46,32,35,25,19,71,47,25,30.26,30.18,5,1,0,0.00
2013-11-16,50,46,41,47,42,-100,97,90,60,30.32,30.22,5,1,0,0.00
2013-11-17,60,54,48,57,52,47,98,94,84,30.22,29.75,5,2,0,0.00
2013-11-18,63,57,47,59,36,25,94,49,24,29.91,29.67,14,6,0,0.00
2013-11-19,47,41,34,28,25,22,64,54,42,30.36,29.91,7,4,0,0.00
2013-11-20,42,34,28,24,19,10,79,56,27,30.56,30.35,5,2,0,0.00
2013-11-21,47,39,29,38,31,21,84,74,65,30.58,30.38,2,0,0,0.00
2013-11-22,59,51,43,51,45,37,87,80,71,30.38,29.99,4,2,0,0.00
2013-11-23,53,39,28,47,24,-100,79,58,43,30.16,30.01,9,5,0,0.00
2013-11-24,27,23,20,11,8,5,65,52,41,30.50,30.17,11,6,0,0.00
2013-11-25,33,26,17,12,9,6,66,50,31,30.56,30.35,5,3,0,0.00
2013-11-26,45,33,30,44,25,11,97,77,45,30.35,29.59,7,2,0,0.00
2013-11-27,41,34,26,40,29,15,97,84,59,29.99,29.50,10,6,0,0.00
2013-11-28,33,28,24,18,14,11,66,56,39,30.47,29.99,8,4,0,0.00
2013-11-30,33,28,22,22,16,-100,74,63,51,30.72,30.39,3,1,0,0.00
2013-12-1,44,35,26,31,26,21,85,70,53,30.38,30.02,3,0,0,0.00
2013-12-2,46,40,37,35,33,30,85,75,62,30.01,29.87,2,0,0,0.00
2013-12-3,54,44,38,39,35,32,85,72,54,29.98,29.88,4,1,0,0.00
2013-12-4,52,45,38,46,40,34,94,83,76,30.08,29.98,3,1,0,0.00
2013-12-5,65,56,48,60,53,46,100,91,76,30.07,29.91,5,2,0,0.00
2013-12-6,62,48,34,61,46,33,96,95,92,30.15,29.86,5,3,0,0.00
2013-12-7,38,33,28,33,26,-100,96,80,66,30.53,30.09,5,3,0,0.00
2013-12-8,28,25,22,27,22,16,96,87,71,30.58,30.31,4,2,0,0.00
2013-12-9,33,31,28,32,30,27,97,96,95,30.30,30.03,3,1,0,0.00
2013-12-10,33,29,26,31,26,17,97,89,68,30.20,29.98,5,2,0,0.00
2013-12-11,34,27,21,18,16,14,76,62,45,30.40,30.20,4,2,0,0.00
2013-12-12,30,24,20,20,10,4,74,57,44,30.42,30.25,7,3,0,0.00
2013-12-13,36,29,19,18,12,7,68,51,39,30.32,30.22,9,4,0,0.00
2013-12-14,35,32,30,32,24,-100,97,76,52,30.33,29.71,7,3,0,0.00
2013-12-15,40,33,29,34,28,20,97,81,67,29.92,29.62,10,4,0,0.00
2013-12-16,33,30,26,25,21,16,78,69,64,30.19,29.91,7,2,0,0.00
2013-12-17,33,30,27,29,26,23,93,85,77,30.17,29.94,5,2,0,0.00
2013-12-18,35,30,26,26,22,18,93,72,56,30.22,29.98,9,3,0,0.00
2013-12-19,55,40,25,30,25,20,85,58,37,30.20,30.07,6,2,0,0.00
2013-12-20,55,49,42,41,32,27,59,52,43,30.10,29.98,5,3,0,0.00
2013-12-21,68,58,51,57,47,-100,82,71,58,30.00,29.88,6,4,0,0.00
2013-12-22,68,62,60,62,59,56,95,89,82,29.97,29.80,9,4,0,0.00
2013-12-23,61,52,35,58,48,26,97,88,69,30.21,29.88,7,3,0,0.00
2013-12-24,36,30,20,26,19,7,85,65,45,30.45,30.18,10,4,0,0.00
2013-12-25,29,21,15,17,11,8,77,64,45,30.57,30.40,4,2,0,0.00
2013-12-26,41,30,20,24,20,16,92,68,45,30.40,30.22,7,2,0,0.00
2013-12-27,46,37,28,21,18,15,66,48,28,30.41,30.30,9,3,0,0.00
2013-12-28,55,43,33,27,22,-100,59,44,30,30.32,30.11,8,3,0,0.00
2013-12-29,46,42,38,42,36,24,97,82,43,30.11,29.52,8,3,0,0.00
2013-12-30,44,37,28,38,29,18,90,73,65,30.17,29.79,6,3,0,0.00
2013-12-31,38,30,26,26,19,15,74,63,49,30.31,30.09,10,3,0,0.00
2014-1-1,43,32,23,30,22,14,92,67,49,30.41,30.14,6,2,0,0.00
2014-1-2,32,30,24,30,28,22,96,92,87,30.13,29.63,5,1,0,0.00